Orbital Elements at Epoch 2459200.5 (2020-Dec-17.0) TDB
Reference: JPL 22 (heliocentric ecliptic J2000)
Element | Value | Uncertainty (1-sigma) | Units |
e | .1373248383030891 | 6.14e-08 | |
a | 2.543760106073806 | 1.1959e-08 | au |
q | 2.194438660825372 | 1.6039e-07 | au |
i | 3.798280914473768 | 3.624e-06 | deg |
node | 303.1023574519235 | 7.8695e-05 | deg |
peri | 68.0001151840016 | 7.9663e-05 | deg |
M | 15.11374016277925 | 1.1498e-05 | deg |
tp | 2459138.286862275686 (2020-Oct-15.78686228) | 4.7309e-05 | TDB |
period | 1481.8786971017 4.06 | 1.045e-05 2.861e-08 | d yr |
n | .2429348641721473 | 1.7131e-09 | deg/d |
Q | 2.89308155132224 | 1.3601e-08 | au |
|
| | Orbit Determination Parameters
Additional Information
|